Date String (YYYY-MM-DD hh:mm:ss) UTC,Instrument flags,absolute air pressure of the measurement (hPa),sample flow rate (lpm),inlet stack bypass flow (lpm),air temperature of the measurement (°C),ambient temperature measured by the external sensor (°C),aerosol sample conditioner tube jacket temperature (°C),OPC LED temperature (°C),internal box temperature (°C),relative humidity of the measurement (%),span deviation,mass concentration of particles derived from Lorenz-Mie calculation of OPC scattering (μg/m³),mass concentration of particles derived from Lorenz-Mie calculation of OPC scattering (μg/m³),mass concentration of particles derived from Lorenz-Mie calculation of OPC scattering (μg/m³)
DateTimeUTC,F1_M11,P_M11,Q1_M11,Q2_M11,T1_M11,T2_M11,T3_M11,T4_M11,T5_M11,U1_M11,ZSPAN_M11,X0_M11,X2_M11,X1_M11
2023-10-26 14:00:00,SystemResetWarning,0824.0,5.00,000.00,028.5,027.2,000.0,037.0,030.1,20.3,-001.5,0015.03,0009.91,0009.11
2023-10-26 14:01:00,SystemResetWarning,0824.0,5.00,000.00,028.5,027.2,000.0,037.0,030.2,20.3,-001.5,0014.52,0009.84,0009.06
2023-10-26 14:02:00,SystemResetWarning,0823.8,5.00,000.00,028.5,027.2,000.0,037.0,030.2,20.3,-001.6,0014.37,0009.87,0009.05
2023-10-26 14:03:00,SystemResetWarning,0823.8,4.99,000.00,028.5,027.1,000.0,037.0,030.1,20.3,-001.7,0014.29,0009.83,0009.03
2023-10-26 14:04:00,SystemResetWarning,0823.9,4.99,000.00,028.5,027.1,000.0,037.0,030.2,20.2,-001.7,0014.27,0009.82,0009.01
2023-10-26 14:05:00,SystemResetWarning,0823.9,5.01,000.00,028.6,027.1,000.0,037.0,030.2,20.3,-001.9,0014.17,0009.80,0009.02
2023-10-26 14:06:00,SystemResetWarning,0823.8,5.00,000.00,028.6,027.2,000.0,037.0,030.2,20.3,-001.9,0014.06,0009.80,0009.03
2023-10-26 14:07:00,SystemResetWarning,0823.8,5.00,000.00,028.6,027.1,000.0,037.0,030.1,20.3,-002.1,0014.02,0009.81,0009.03
2023-10-26 14:08:00,SystemResetWarning,0823.8,5.00,000.00,028.6,027.1,000.0,037.0,030.1,20.3,-002.2,0014.03,0009.79,0008.99
2023-10-26 14:09:00,SystemResetWarning,0823.9,5.00,000.00,028.6,027.1,000.0,037.0,030.1,20.3,-002.0,0013.89,0009.72,0008.97
2023-10-26 14:10:00,SystemResetWarning,0823.9,5.00,000.00,028.6,027.1,000.0,037.0,030.1,20.3,-001.9,0013.90,0009.69,0008.95
2023-10-26 14:11:00,SystemResetWarning,0823.9,5.00,000.00,028.5,027.1,000.0,037.0,030.1,20.4,-001.8,0014.11,0009.74,0008.98
2023-10-26 14:12:00,SystemResetWarning,0823.9,5.00,000.00,028.6,027.1,000.0,037.0,030.2,20.4,-001.9,0014.19,0009.79,0009.00
2023-10-26 14:13:00,SystemResetWarning,0823.9,5.00,000.00,028.6,027.2,000.0,037.0,030.2,20.3,-001.6,0014.04,0009.75,0009.01
2023-10-26 14:14:00,SystemResetWarning,0823.9,5.00,000.00,028.5,027.2,000.0,037.0,030.2,20.3,-001.6,0014.14,0009.80,0009.05
2023-10-26 14:15:00,SystemResetWarning,0824.0,5.00,000.00,028.5,027.2,000.0,037.0,030.2,20.3,-001.6,0014.22,0009.84,0009.09
2023-10-26 14:16:00,SystemResetWarning,0824.0,5.00,000.00,028.5,027.1,000.0,037.0,030.1,20.3,-001.4,0014.14,0009.80,0009.09
2023-10-26 14:17:00,SystemResetWarning,0823.9,5.00,000.00,028.5,027.1,000.0,037.0,030.1,20.3,-001.5,0014.37,0009.77,0009.06
2023-10-26 14:18:00,SystemResetWarning,0823.8,5.00,000.00,028.5,027.1,000.0,037.0,030.1,20.3,-001.4,0014.63,0009.74,0009.05
2023-10-26 14:19:00,SystemResetWarning,0823.8,5.00,000.00,028.5,027.1,000.0,037.0,030.1,20.2,-001.1,0014.58,0009.71,0009.06
2023-10-26 14:20:00,SystemResetWarning,0824.0,5.00,000.00,028.5,027.1,000.0,037.0,030.1,20.2,-001.2,0014.40,0009.63,0009.03
2023-10-26 14:21:00,SystemResetWarning,0823.9,5.00,000.00,028.6,027.1,000.0,037.0,030.2,20.2,-001.5,0014.42,0009.61,0009.03
2023-10-26 14:22:00,SystemResetWarning,0824.0,4.99,000.00,028.6,027.1,000.0,037.0,030.2,20.2,-001.8,0014.12,0009.55,0009.03
2023-10-26 14:23:00,SystemResetWarning,0824.0,5.00,000.00,028.6,027.1,000.0,037.0,030.1,20.2,-001.8,0014.24,0009.50,0009.01
2023-10-26 14:24:00,SystemResetWarning,0824.0,5.00,000.00,028.6,027.1,000.0,037.0,030.2,20.2,-001.9,0014.64,0009.47,0008.96
2023-10-26 14:25:00,SystemResetWarning,0824.1,5.00,000.00,028.6,027.1,000.0,037.0,030.2,20.2,-002.0,0014.55,0009.43,0008.94
2023-10-26 14:26:00,SystemResetWarning,0824.2,5.00,000.00,028.6,027.1,000.0,037.0,030.2,20.2,-002.1,0014.51,0009.39,0008.89
2023-10-26 14:27:00,SystemResetWarning,0824.2,5.00,000.00,028.6,027.2,000.0,037.0,030.2,20.2,-002.1,0014.47,0009.36,0008.84
2023-10-26 14:28:00,SystemResetWarning,0824.2,5.00,000.00,028.6,027.2,000.0,037.0,030.2,20.2,-002.2,0014.29,0009.32,0008.80
2023-10-26 14:29:00,SystemResetWarning,0824.2,5.00,000.00,028.6,027.2,000.0,037.0,030.2,20.1,-002.2,0013.78,0009.28,0008.76
2023-10-26 14:30:00,SystemResetWarning,0824.1,5.00,000.00,028.6,027.2,000.0,037.0,030.2,20.2,-002.4,0013.70,0009.23,0008.68
2023-10-26 14:31:00,SystemResetWarning,0824.2,5.00,000.00,028.6,027.2,000.0,037.0,030.2,20.2,-002.6,0013.62,0009.16,0008.60
2023-10-26 14:32:00,SystemResetWarning,0824.2,5.01,000.00,028.6,027.2,000.0,037.0,030.2,20.2,-002.7,0013.46,0009.08,0008.54
2023-10-26 14:33:00,SystemResetWarning,0824.1,5.01,000.00,028.6,027.1,000.0,037.0,030.2,20.2,-002.5,0013.30,0009.01,0008.47
2023-10-26 14:34:00,SystemResetWarning,0824.1,5.00,000.00,028.6,027.1,000.0,037.0,030.2,20.2,-002.4,0013.19,0008.98,0008.40
2023-10-26 14:35:00,SystemResetWarning,0824.1,5.00,000.00,028.6,027.1,000.0,037.0,030.2,20.2,-002.6,0012.58,0008.93,0008.33
2023-10-26 14:36:00,SystemResetWarning,0824.2,4.99,000.00,028.6,027.1,000.0,037.0,030.1,20.1,-002.6,0012.61,0008.92,0008.30
2023-10-26 14:37:00,SystemResetWarning,0824.3,4.99,000.00,028.5,027.0,000.0,037.0,030.1,20.1,-002.6,0012.58,0008.87,0008.23
2023-10-26 14:38:00,SystemResetWarning,0824.3,4.99,000.00,028.5,027.0,000.0,037.0,030.1,20.2,-002.6,0012.42,0008.77,0008.15
2023-10-26 14:39:00,SystemResetWarning,0824.3,4.99,000.00,028.5,027.0,000.0,037.0,030.1,20.2,-002.4,0012.25,0008.67,0008.09
2023-10-26 14:40:00,SystemResetWarning,0824.3,5.01,000.00,028.5,027.0,000.0,037.0,030.0,20.2,-002.3,0012.10,0008.57,0008.03
2023-10-26 14:41:00,SystemResetWarning,0824.4,5.01,000.00,028.5,026.9,000.0,037.0,030.0,20.2,-002.5,0011.94,0008.48,0007.96
2023-10-26 14:42:00,SystemResetWarning,0824.4,5.00,000.00,028.5,026.9,000.0,037.0,030.0,20.2,-002.5,0011.81,0008.42,0007.93
2023-10-26 14:43:00,SystemResetWarning,0824.3,5.00,000.00,028.5,026.9,000.0,037.0,030.0,20.2,-002.4,0011.64,0008.32,0007.85
2023-10-26 14:44:00,SystemResetWarning,0824.3,4.99,000.00,028.5,026.9,000.0,037.0,030.0,20.2,-002.3,0011.56,0008.27,0007.82
2023-10-26 14:45:00,SystemResetWarning,0824.4,4.99,000.00,028.5,027.0,000.0,036.9,030.0,20.2,-002.4,0011.41,0008.18,0007.74
2023-10-26 14:46:00,SystemResetWarning,0824.4,5.00,000.00,028.5,027.0,000.0,036.9,030.1,20.3,-002.3,0011.28,0008.11,0007.73
2023-10-26 14:47:00,SystemResetWarning,0824.4,4.99,000.00,028.5,027.0,000.0,036.9,030.0,20.3,-002.4,0011.19,0008.04,0007.69
2023-10-26 14:48:00,SystemResetWarning,0824.4,5.00,000.00,028.5,027.0,000.0,036.9,030.0,20.3,-002.3,0010.91,0007.90,0007.61
2023-10-26 14:49:00,SystemResetWarning,0824.3,5.00,000.00,028.5,026.9,000.0,036.9,030.0,20.3,-002.2,0010.74,0007.81,0007.55
2023-10-26 14:50:00,SystemResetWarning,0824.4,5.00,000.00,028.5,027.0,000.0,036.9,030.0,20.3,-002.3,0010.58,0007.70,0007.43
2023-10-26 14:51:00,SystemResetWarning,0824.4,5.01,000.00,028.5,027.0,000.0,036.9,030.0,20.5,-002.6,0010.44,0007.61,0007.35
2023-10-26 14:52:00,SystemResetWarning,0824.4,5.00,000.00,028.5,027.0,000.0,036.9,030.0,21.3,-002.6,0010.42,0007.56,0007.29
2023-10-26 14:53:00,SystemResetWarning,0824.3,4.99,000.00,028.5,027.0,000.0,036.9,030.0,20.7,-002.6,0010.29,0007.45,0007.19
2023-10-26 14:54:00,SystemResetWarning,0824.4,4.99,000.00,028.5,027.0,000.0,036.9,030.0,20.6,-002.7,0010.15,0007.35,0007.10
2023-10-26 14:55:00,SystemResetWarning,0824.4,5.00,000.00,028.5,027.0,000.0,036.9,030.0,20.6,-002.9,0009.90,0007.20,0006.96
2023-10-26 14:56:00,SystemResetWarning,0824.4,4.99,000.00,028.5,027.0,000.0,036.9,030.0,20.6,-003.0,0009.70,0007.07,0006.86
2023-10-26 14:57:00,SystemResetWarning,0824.3,5.01,000.00,028.5,027.0,000.0,036.9,030.0,20.6,-003.1,0009.49,0006.93,0006.74
2023-10-26 14:58:00,SystemResetWarning,0824.4,5.00,000.00,028.5,027.1,000.0,036.9,030.0,20.5,-003.1,0009.29,0006.81,0006.63
2023-10-26 14:59:00,SystemResetWarning,0824.4,5.01,000.00,028.5,027.0,000.0,036.9,030.1,20.5,-003.0,0009.14,0006.70,0006.53
